Flag for Slovenia Weather past 2 weeks in Maribor, Slovenia

Now
54 °F

Fog.


Feels Like: 54 °F
Forecast: 53 / 68 °F
Wind: 1 mph from South

Location: Maribor / Slivnica

Current Time: Oct 1, 2014 at 6:51:49 AM

Latest Report: Oct 1, 2014 at 6:00 AM


Visibility: 1 mi

Pressure: 30.26 "Hg

Humidity: 96%

Dew point: 53 °F

Location of MariborLocation

Historic Weather in Maribor — Graph

°F

Maribor temperature yesterday

Maximum temperature yesterday: 71 °F (at 3:00 PM)
Minimum temperature yesterday: 48 °F (at 7:00 AM)
Average temperature yesterday: 58 °F

Past Weeks' High & Low Weather Summary

 TemperatureHumidityPressure
High78 °F (Sep 21, 5:00 PM)100% (Sep 17, 9:00 AM)30.43 "Hg (Sep 17, 9:00 AM)
Low41 °F (Sep 24, 6:00 AM)38% (Sep 23, 4:00 PM)29.81 "Hg (Sep 21, 6:00 PM)
Average58 °F83%30.12 "Hg
* Reported Sep 16 5:00 AM — Oct 1 5:00 AM, Maribor, Weather by CustomWeather, © 2014

Note: Actual official high and low records may vary slightly from our data, if they occured in-between our weather recording intervals... More about our weather records

Advertising

Maribor weather history for previous 24 hours

 ConditionsComfort  
Time TempWeatherWind HumidityBarometerVisibility
5:00 AM
Oct 1
54 °FCool.No wind97%30.27 "HgN/A
4:00 AM54 °FDuststorm.No wind98%30.26 "HgN/A
3:00 AM55 °FFog.1 mph98%30.27 "HgN/A
2:00 AM55 °FFog.No wind96%30.28 "HgN/A
1:00 AM56 °FFog.1 mph95%30.28 "HgN/A
12:00 AM55 °FFog.No wind96%30.28 "HgN/A
11:00 PM
Sep 30
55 °FFog.1 mph94%30.29 "HgN/A
10:00 PM56 °FClear.1 mph96%30.29 "Hg7 mi
9:00 PM57 °FClear.1 mph94%30.29 "Hg7 mi
8:00 PM58 °FClear.1 mph90%30.29 "Hg7 mi
7:00 PM62 °FClear.1 mph85%30.26 "Hg12 mi
6:00 PM69 °FSunny.3 mph65%30.24 "Hg12 mi
5:00 PM71 °FPassing clouds.3 mph56%30.24 "Hg12 mi
4:00 PM71 °FPassing clouds.3 mph56%30.24 "Hg12 mi
3:00 PM71 °FPassing clouds.2 mph55%30.26 "Hg12 mi
2:00 PM71 °FPassing clouds.2 mph62%30.26 "Hg12 mi
12:00 PM67 °FPassing clouds.1 mph70%30.29 "Hg11 mi
11:00 AM64 °FScattered clouds.1 mph76%30.30 "Hg11 mi
10:00 AM60 °FCool.2 mph86%30.30 "HgN/A
9:00 AM54 °FPassing clouds.1 mph95%30.31 "Hg9 mi
8:00 AM51 °FPassing clouds.1 mph98%30.30 "Hg4 mi
7:00 AM48 °FFog.1 mph99%30.30 "Hg0 mi
6:00 AM50 °FFog.1 mph100%30.28 "Hg0 mi
Weather by CustomWeather, © 2014

See weather overviewHow to use our weather pages